COSMOS 2251 DEB, 34760

Orbit data source: Space-Track

COSMOS 2251 DEB, 34760 is space debris in LEO originally from a launch on Wed, 16 Jun 1993 UTC launched from the Plesetsk Missile And Space Complex (PKMTR). The debris from Iridium 33, an American commercial communications satellite, has been tracked extensively since its accidental collision with the defunct Russian satellite Cosmos 2251 in 2009. This event, occurring at high speed in low Earth orbit (LEO), generated thousands of pieces of space debris, significantly increasing the risk of further collisions. The Iridium 33 debris cloud has impacted space traffic management and orbital debris mitigation strategies, making it a subject of ongoing study in space situational awareness.

Loading next visibility...
Identifier
34760, 1993-036AAE
Orbit
LEO
Country
Flag of CISCIS
Related business
Manufacturer
Unknown
Mission
Spacecraft
Bus & Motor
Unknown
Mass
Unknown
Launch date (UTC)
1993-06-16 (32 years ago)
Launch vehicle
Unknown
Launch site
Plesetsk Missile And Space Complex (PKMTR)
Object type
Payload
Rocket body
Debris
Shape & HBR
Unknown shape, 0.1 m
Radar Cross Section
Small (<0.1 m²)

Expand to show TLE details & history
Last TLE update: 2 days ago

TLE from 2 days ago
0 COSMOS 2251 DEB
1 34760U 93036AAE 25302.98237480  .00001100  00000-0  51040-3 0  9999
2 34760  74.0650  20.4375 0095590  84.0658  95.1069 14.19422448860670
Epoch: 2025-10-29T23:34Z
TLE epoch observation values (Epoch: 2025-10-29T23:34:37.182Z)
Latitude
-0.36457°
Longitude
168.33842°
Altitude
836.732 km
Speed
7.431 km/s
True Right ascension
13h 22m 09s
True Declination
0° 21' 45"
Sunlit
Object was in daylight at epoch
Visualization orbit readout
Latitude
Unknown
Longitude
Unknown
Altitude
Unknown
Speed
Unknown
Apparent Right ascension
Unknown
Apparent Declination
Unknown
Sunlit
N/A
Visualization observer readout
Local Sidereal Time
15:16:29
Azimuth
Unknown
Elevation
Unknown
Doppler factor
Unknown
Orbital elements
Apogee altitude
893.801 km
Perigee altitude
756.092 km
Semi-major axis
7,203.083 km
Eccentricity
0.00956
Inclination
74.065°
RAAN
20.4375°
Arg. of periapsis
84.0658°
True anomaly
96.19671°
Mean anomaly
95.1069°
Eccentric anomaly
95.65193°
Mean motion
3.5503 °/min
Orbital period
101.4 mins
BSTAR
0.0005104

Documentation

Showing up to 5 results
|